Powrót do katalogu

SL-19 DEB

AktywnyUNKNOWN
NORAD 23564·DEBRIS·🇷🇺 Russia

Wystrzelony Dec 26, 1994 z Baikonur Cosmodrome

Loading…

Następne Przeloty (najbliższe 24 godziny)

TLE

ŚwieżeSource: Space-Track

Epoka: Sep 14, 2026, 06:35 UTC

1 23564U 94085V   26257.27467355 -.00000041  00000-0  43974-4 0  9994
2 23564  64.9999   1.1490 0183082  59.3090 328.3141 11.34902626298286

Śledź SL-19 DEB w czasie rzeczywistym z AllMySat

Download on the App Store